Time,TemperatureF,DewpointF,PressureIn,WindDirection,WindDirectionDegrees,WindSpeedMPH,WindSpeedGustMPH,Humidity,HourlyPrecipIn,Conditions,Clouds,dailyrainin,SoftwareType,DateUTC
2013-05-02 00:01:00,69.2,53.3,30.19,SSE,158,0.0,0.0,57,0.00,,---,0.00,VWS V14.01,2013-05-02 04:01:00,
2013-05-02 00:02:00,69.0,53.2,30.19,SSE,158,0.0,0.0,57,0.00,,---,0.00,VWS V14.01,2013-05-02 04:02:00,
2013-05-02 00:04:00,69.0,53.2,30.19,SSE,158,0.0,0.0,57,0.00,,---,0.00,VWS V14.01,2013-05-02 04:04:00,
2013-05-02 00:07:00,69.0,53.6,30.19,South,180,0.0,0.0,58,0.00,,---,0.00,VWS V14.01,2013-05-02 04:07:00,
2013-05-02 00:12:00,68.9,53.5,30.19,SSE,158,0.0,0.0,58,0.00,,---,0.00,VWS V14.01,2013-05-02 04:12:00,
2013-05-02 00:17:00,68.7,53.3,30.19,SSE,158,2.6,2.6,58,0.00,,---,0.00,VWS V14.01,2013-05-02 04:17:00,
2013-05-02 00:20:00,68.5,53.2,30.19,SSE,158,0.0,0.0,58,0.00,,---,0.00,VWS V14.01,2013-05-02 04:20:00,
2013-05-02 00:25:00,68.5,53.6,30.19,South,180,0.0,0.0,59,0.00,,---,0.00,VWS V14.01,2013-05-02 04:25:00,
2013-05-02 00:30:00,68.1,53.2,30.19,SSE,158,0.0,0.0,59,0.00,,---,0.00,VWS V14.01,2013-05-02 04:30:00,
2013-05-02 00:35:00,67.8,53.0,30.20,South,180,0.0,0.0,59,0.00,,---,0.00,VWS V14.01,2013-05-02 04:35:00,
2013-05-02 00:40:00,67.8,53.4,30.20,SSE,158,0.0,0.0,60,0.00,,---,0.00,VWS V14.01,2013-05-02 04:40:00,
2013-05-02 00:45:00,67.6,53.2,30.20,SSE,158,0.0,0.0,60,0.00,,---,0.00,VWS V14.01,2013-05-02 04:45:00,
2013-05-02 00:50:00,67.4,53.0,30.20,SSE,158,0.0,0.0,60,0.00,,---,0.00,VWS V14.01,2013-05-02 04:50:00,
2013-05-02 00:55:00,67.1,52.8,30.20,SSE,158,0.0,0.0,60,0.00,,---,0.00,VWS V14.01,2013-05-02 04:55:00,
2013-05-02 01:00:00,66.9,53.0,30.20,SSE,158,0.0,0.0,61,0.00,,---,0.00,VWS V14.01,2013-05-02 05:00:00,
2013-05-02 01:06:00,66.9,-10.2,30.20,SSE,158,0.0,0.0,61,0.00,,---,0.00,VWS V14.01,2013-05-02 05:06:00,
2013-05-02 01:12:00,66.7,52.8,30.20,SSE,158,0.0,0.0,61,0.00,,---,0.00,VWS V14.01,2013-05-02 05:12:00,
2013-05-02 01:17:00,66.5,53.1,30.20,SSE,158,0.0,0.0,62,0.00,,---,0.00,VWS V14.01,2013-05-02 05:17:00,
2013-05-02 01:22:00,66.3,52.9,30.20,SSE,158,0.0,0.0,62,0.00,,---,0.00,VWS V14.01,2013-05-02 05:22:00,
2013-05-02 01:27:00,66.2,52.8,30.20,SSE,158,0.0,0.0,62,0.00,,---,0.00,VWS V14.01,2013-05-02 05:27:00,
2013-05-02 01:32:00,66.0,53.1,30.20,SSE,158,0.0,0.0,63,0.00,,---,0.00,VWS V14.01,2013-05-02 05:32:00,
2013-05-02 01:37:00,66.0,53.1,30.20,South,180,0.0,0.0,63,0.00,,---,0.00,VWS V14.01,2013-05-02 05:37:00,
2013-05-02 01:42:00,65.8,52.9,30.20,South,180,0.0,0.0,63,0.00,,---,0.00,VWS V14.01,2013-05-02 05:42:00,
2013-05-02 01:47:00,65.8,53.3,30.20,South,180,0.0,0.0,64,0.00,,---,0.00,VWS V14.01,2013-05-02 05:47:00,
2013-05-02 01:52:00,65.4,52.9,30.20,SSE,158,0.0,0.0,64,0.00,,---,0.00,VWS V14.01,2013-05-02 05:52:00,
2013-05-02 01:57:00,65.4,52.9,30.20,South,180,0.0,0.0,64,0.00,,---,0.00,VWS V14.01,2013-05-02 05:57:00,
2013-05-02 02:02:00,65.3,52.8,30.20,SSE,158,0.0,0.0,64,0.00,,---,0.00,VWS V14.01,2013-05-02 06:02:00,
2013-05-02 02:07:00,65.3,-9.3,30.20,SSE,158,0.0,0.0,64,0.00,,---,0.00,VWS V14.01,2013-05-02 06:07:00,
2013-05-02 02:12:00,65.3,-9.3,30.20,SSE,158,0.0,0.0,64,0.00,,---,0.00,VWS V14.01,2013-05-02 06:12:00,
2013-05-02 02:17:00,65.3,52.8,30.20,SSE,158,0.0,0.0,64,0.00,,---,0.00,VWS V14.01,2013-05-02 06:17:00,
2013-05-02 02:22:00,64.7,52.7,30.19,SE,135,0.0,0.0,65,0.00,,---,0.00,VWS V14.01,2013-05-02 06:22:00,
2013-05-02 02:27:00,64.5,52.5,30.19,SSE,158,0.0,0.0,65,0.00,,---,0.00,VWS V14.01,2013-05-02 06:27:00,
2013-05-02 02:32:00,64.2,52.2,30.19,SE,135,1.7,1.7,65,0.00,,---,0.00,VWS V14.01,2013-05-02 06:32:00,
2013-05-02 02:37:00,64.2,52.6,30.18,South,180,0.0,0.0,66,0.00,,---,0.00,VWS V14.01,2013-05-02 06:37:00,
2013-05-02 02:42:00,64.2,52.2,30.19,SSE,158,0.0,0.0,65,0.00,,---,0.00,VWS V14.01,2013-05-02 06:42:00,
2013-05-02 02:47:00,64.0,52.4,30.18,South,180,1.1,1.1,66,0.00,,---,0.00,VWS V14.01,2013-05-02 06:47:00,
2013-05-02 02:52:00,64.0,52.4,30.18,SSE,158,0.0,0.0,66,0.00,,---,0.00,VWS V14.01,2013-05-02 06:52:00,
2013-05-02 02:57:00,63.8,52.2,30.18,South,180,0.0,0.0,66,0.00,,---,0.00,VWS V14.01,2013-05-02 06:57:00,
2013-05-02 03:03:00,63.6,-8.6,30.18,SSE,158,0.0,0.0,66,0.00,,---,0.00,VWS V14.01,2013-05-02 07:03:00,
2013-05-02 03:09:00,63.5,52.0,30.18,South,180,0.0,0.6,66,0.00,,---,0.00,VWS V14.01,2013-05-02 07:09:00,
2013-05-02 03:14:00,63.3,51.8,30.18,South,180,0.0,0.0,66,0.00,,---,0.00,VWS V14.01,2013-05-02 07:14:00,
2013-05-02 03:19:00,63.3,51.8,30.18,SSE,158,0.0,0.8,66,0.00,,---,0.00,VWS V14.01,2013-05-02 07:19:00,
2013-05-02 03:24:00,63.1,51.6,30.18,SSE,158,0.0,0.0,66,0.00,,---,0.00,VWS V14.01,2013-05-02 07:24:00,
2013-05-02 03:29:00,63.1,51.6,30.18,South,180,0.0,0.0,66,0.00,,---,0.00,VWS V14.01,2013-05-02 07:29:00,
2013-05-02 03:35:00,62.9,51.4,30.18,SSE,158,0.0,0.0,66,0.00,,---,0.00,VWS V14.01,2013-05-02 07:35:00,
2013-05-02 03:40:00,62.7,50.8,30.18,SSE,158,0.0,0.0,65,0.00,,---,0.00,VWS V14.01,2013-05-02 07:40:00,
2013-05-02 03:45:00,62.4,50.9,30.18,South,180,0.0,0.0,66,0.00,,---,0.00,VWS V14.01,2013-05-02 07:45:00,
2013-05-02 03:50:00,62.4,50.9,30.18,SE,135,0.0,0.0,66,0.00,,---,0.00,VWS V14.01,2013-05-02 07:50:00,
2013-05-02 03:55:00,62.4,50.9,30.18,South,180,0.0,0.0,66,0.00,,---,0.00,VWS V14.01,2013-05-02 07:55:00,
2013-05-02 04:00:00,62.2,50.7,30.18,South,180,0.0,0.0,66,0.00,,---,0.00,VWS V14.01,2013-05-02 08:00:00,
2013-05-02 04:05:00,62.2,-8.6,30.18,South,180,0.0,0.0,66,0.00,,---,0.00,VWS V14.01,2013-05-02 08:05:00,
2013-05-02 04:10:00,62.2,-8.6,30.18,South,180,0.0,0.0,66,0.00,,---,0.00,VWS V14.01,2013-05-02 08:10:00,
2013-05-02 04:16:00,62.2,50.7,30.18,South,180,0.0,0.0,66,0.00,,---,0.00,VWS V14.01,2013-05-02 08:16:00,
2013-05-02 04:21:00,62.2,50.7,30.18,South,180,0.0,0.0,66,0.00,,---,0.00,VWS V14.01,2013-05-02 08:21:00,
2013-05-02 04:26:00,61.7,50.2,30.18,SSE,158,0.0,0.0,66,0.00,,---,0.00,VWS V14.01,2013-05-02 08:26:00,
2013-05-02 04:31:00,61.7,50.2,30.18,SSE,158,0.0,0.0,66,0.00,,---,0.00,VWS V14.01,2013-05-02 08:31:00,
2013-05-02 04:36:00,61.5,50.0,30.18,South,180,0.0,0.0,66,0.00,,---,0.00,VWS V14.01,2013-05-02 08:36:00,
2013-05-02 04:41:00,61.5,50.0,30.18,SE,135,0.0,0.0,66,0.00,,---,0.00,VWS V14.01,2013-05-02 08:41:00,
2013-05-02 04:46:00,61.3,49.9,30.18,South,180,0.0,0.0,66,0.00,,---,0.00,VWS V14.01,2013-05-02 08:46:00,
2013-05-02 04:51:00,61.3,49.9,30.18,SSE,158,0.0,0.0,66,0.00,,---,0.00,VWS V14.01,2013-05-02 08:51:00,
2013-05-02 04:56:00,61.3,49.9,30.18,SSE,158,0.0,0.0,66,0.00,,---,0.00,VWS V14.01,2013-05-02 08:56:00,
2013-05-02 05:01:00,61.3,49.9,30.18,SSE,158,0.0,0.0,66,0.00,,---,0.00,VWS V14.01,2013-05-02 09:01:00,
2013-05-02 05:06:00,61.3,-8.6,30.18,SSE,158,0.0,0.0,66,0.00,,---,0.00,VWS V14.01,2013-05-02 09:06:00,
2013-05-02 05:11:00,61.3,49.9,30.18,SSE,158,0.0,0.0,66,0.00,,---,0.00,VWS V14.01,2013-05-02 09:11:00,
2013-05-02 05:16:00,61.3,-8.6,30.18,SSE,158,0.0,0.0,66,0.00,,---,0.00,VWS V14.01,2013-05-02 09:16:00,
2013-05-02 05:21:00,61.3,-8.6,30.18,SSE,158,0.0,0.0,66,0.00,,---,0.00,VWS V14.01,2013-05-02 09:21:00,
2013-05-02 05:26:00,61.3,-8.6,30.18,SSE,158,0.0,0.0,66,0.00,,---,0.00,VWS V14.01,2013-05-02 09:26:00,
2013-05-02 05:31:00,61.3,-8.6,30.18,SSE,158,0.0,0.0,66,0.00,,---,0.00,VWS V14.01,2013-05-02 09:31:00,
2013-05-02 05:36:00,61.3,-8.6,30.18,SSE,158,0.0,0.0,66,0.00,,---,0.00,VWS V14.01,2013-05-02 09:36:00,
2013-05-02 05:41:00,61.3,-8.6,30.18,SSE,158,0.0,0.0,66,0.00,,---,0.00,VWS V14.01,2013-05-02 09:41:00,
2013-05-02 05:46:00,61.3,-8.6,30.18,SSE,158,0.0,0.0,66,0.00,,---,0.00,VWS V14.01,2013-05-02 09:46:00,
2013-05-02 05:51:00,61.3,-8.6,30.18,SSE,158,0.0,0.0,66,0.00,,---,0.00,VWS V14.01,2013-05-02 09:51:00,
2013-05-02 05:56:00,61.3,-8.6,30.18,SSE,158,0.0,0.0,66,0.00,,---,0.00,VWS V14.01,2013-05-02 09:56:00,
2013-05-02 06:01:00,61.3,-8.6,30.18,SSE,158,0.0,0.0,66,0.00,,---,0.00,VWS V14.01,2013-05-02 10:01:00,
2013-05-02 06:07:00,61.3,-8.6,30.18,SSE,158,0.0,0.0,66,0.00,,---,0.00,VWS V14.01,2013-05-02 10:07:00,
2013-05-02 06:13:00,61.3,-8.6,30.19,SSE,158,0.0,0.0,66,0.00,,---,0.00,VWS V14.01,2013-05-02 10:13:00,
2013-05-02 06:18:00,61.3,-8.6,30.19,SSE,158,0.0,0.0,66,0.00,,---,0.00,VWS V14.01,2013-05-02 10:18:00,
2013-05-02 06:23:00,61.3,-8.6,30.18,SSE,158,0.0,0.0,66,0.00,,---,0.00,VWS V14.01,2013-05-02 10:23:00,
2013-05-02 06:28:00,61.3,-8.6,30.18,SSE,158,0.0,0.0,66,0.00,,---,0.00,VWS V14.01,2013-05-02 10:28:00,
2013-05-02 06:33:00,61.3,-8.6,30.19,SSE,158,0.0,0.0,66,0.00,,---,0.00,VWS V14.01,2013-05-02 10:33:00,
2013-05-02 06:39:00,61.3,-8.6,30.19,SSE,158,0.0,0.0,66,0.00,,---,0.00,VWS V14.01,2013-05-02 10:39:00,
2013-05-02 06:44:00,61.3,-8.6,30.19,SSE,158,0.0,0.0,66,0.00,,---,0.00,VWS V14.01,2013-05-02 10:44:00,
2013-05-02 06:49:00,61.3,-8.6,30.19,SSE,158,0.0,0.0,66,0.00,,---,0.00,VWS V14.01,2013-05-02 10:49:00,
2013-05-02 06:54:00,61.3,-8.6,30.19,SSE,158,0.0,0.0,66,0.00,,---,0.00,VWS V14.01,2013-05-02 10:54:00,
2013-05-02 06:59:00,61.3,-8.6,30.20,SSE,158,0.0,0.0,66,0.00,,---,0.00,VWS V14.01,2013-05-02 10:59:00,
2013-05-02 07:04:00,61.3,-8.6,30.19,SSE,158,0.0,0.0,66,0.00,,---,0.00,VWS V14.01,2013-05-02 11:04:00,
2013-05-02 07:09:00,61.3,-8.6,30.19,SSE,158,0.0,0.0,66,0.00,,---,0.00,VWS V14.01,2013-05-02 11:09:00,
2013-05-02 07:14:00,60.0,48.6,30.20,SSE,158,0.0,0.0,66,0.00,,---,0.00,VWS V14.01,2013-05-02 11:14:00,
2013-05-02 07:19:00,60.0,48.6,30.20,SSE,158,0.0,0.0,66,0.00,,---,0.00,VWS V14.01,2013-05-02 11:19:00,
2013-05-02 07:24:00,60.0,-8.6,30.20,SSE,158,0.0,0.0,66,0.00,,---,0.00,VWS V14.01,2013-05-02 11:24:00,
2013-05-02 07:29:00,60.0,-8.6,30.20,SSE,158,0.0,0.0,66,0.00,,---,0.00,VWS V14.01,2013-05-02 11:29:00,
2013-05-02 07:34:00,60.0,-8.6,30.20,SSE,158,0.0,0.0,66,0.00,,---,0.00,VWS V14.01,2013-05-02 11:34:00,
2013-05-02 07:39:00,60.0,-8.6,30.20,SSE,158,0.0,0.0,66,0.00,,---,0.00,VWS V14.01,2013-05-02 11:39:00,
2013-05-02 07:44:00,60.0,-8.6,30.20,SSE,158,0.0,0.0,66,0.00,,---,0.00,VWS V14.01,2013-05-02 11:44:00,
2013-05-02 07:49:00,60.0,-8.6,30.20,SSE,158,0.0,0.0,66,0.00,,---,0.00,VWS V14.01,2013-05-02 11:49:00,
2013-05-02 07:54:00,60.0,-8.6,30.20,SSE,158,0.0,0.0,66,0.00,,---,0.00,VWS V14.01,2013-05-02 11:54:00,
2013-05-02 07:59:00,60.0,-8.6,30.20,SSE,158,0.0,0.0,66,0.00,,---,0.00,VWS V14.01,2013-05-02 11:59:00,
2013-05-02 08:04:00,60.0,-8.6,30.21,SSE,158,0.0,0.0,66,0.00,,---,0.00,VWS V14.01,2013-05-02 12:04:00,
2013-05-02 08:09:00,60.0,-8.6,30.21,SSE,158,0.0,0.0,66,0.00,,---,0.00,VWS V14.01,2013-05-02 12:09:00,
2013-05-02 08:14:00,60.0,-8.6,30.21,SSE,158,0.0,0.0,66,0.00,,---,0.00,VWS V14.01,2013-05-02 12:14:00,
2013-05-02 08:19:00,60.0,-9.9,30.21,SSE,158,0.0,0.0,62,0.00,,---,0.00,VWS V14.01,2013-05-02 12:19:00,
2013-05-02 08:24:00,60.0,-9.9,30.21,SSE,158,0.0,0.0,62,0.00,,---,0.00,VWS V14.01,2013-05-02 12:24:00,
2013-05-02 08:29:00,60.0,-9.9,30.21,SSE,158,0.0,0.0,62,0.00,,---,0.00,VWS V14.01,2013-05-02 12:29:00,
2013-05-02 08:34:00,60.0,-9.9,30.21,SSE,158,0.0,0.0,62,0.00,,---,0.00,VWS V14.01,2013-05-02 12:34:00,
2013-05-02 08:39:00,60.0,-9.9,30.21,SSE,158,0.0,0.0,62,0.00,,---,0.00,VWS V14.01,2013-05-02 12:39:00,
2013-05-02 08:44:00,60.0,-9.9,30.21,SSE,158,0.0,0.0,62,0.00,,---,0.00,VWS V14.01,2013-05-02 12:44:00,
2013-05-02 08:49:00,60.0,-9.9,30.21,SSE,158,0.0,0.0,62,0.00,,---,0.00,VWS V14.01,2013-05-02 12:49:00,
2013-05-02 08:54:00,60.0,-9.9,30.21,SSE,158,0.0,0.0,62,0.00,,---,0.00,VWS V14.01,2013-05-02 12:54:00,
2013-05-02 08:59:00,60.0,-9.9,30.21,SSE,158,0.0,0.0,62,0.00,,---,0.00,VWS V14.01,2013-05-02 12:59:00,
2013-05-02 09:04:00,60.0,-9.9,30.21,SE,135,3.3,3.3,62,0.00,,---,0.00,VWS V14.01,2013-05-02 13:04:00,
2013-05-02 09:09:00,67.1,53.7,30.22,SE,135,3.3,3.3,62,0.00,,---,0.00,VWS V14.01,2013-05-02 13:09:00,
2013-05-02 09:14:00,67.2,50.5,30.22,SSE,158,0.0,0.0,55,0.00,,---,0.00,VWS V14.01,2013-05-02 13:14:00,
2013-05-02 09:19:00,67.8,51.1,30.22,SSW,202,0.0,0.0,55,0.00,,---,0.00,VWS V14.01,2013-05-02 13:19:00,
2013-05-02 09:24:00,68.1,50.8,30.21,SSE,158,0.0,0.0,54,0.00,,---,0.00,VWS V14.01,2013-05-02 13:24:00,
2013-05-02 09:29:00,68.5,51.2,30.22,South,180,0.0,0.0,54,0.00,,---,0.00,VWS V14.01,2013-05-02 13:29:00,
2013-05-02 09:34:00,68.9,51.6,30.21,SSE,158,0.0,0.0,54,0.00,,---,0.00,VWS V14.01,2013-05-02 13:34:00,
2013-05-02 09:39:00,69.2,51.9,30.21,East,90,0.0,0.0,54,0.00,,---,0.00,VWS V14.01,2013-05-02 13:39:00,
2013-05-02 09:44:00,69.6,51.7,30.21,ESE,112,0.0,0.0,53,0.00,,---,0.00,VWS V14.01,2013-05-02 13:44:00,
2013-05-02 09:49:00,69.6,51.7,30.21,ESE,112,0.0,0.0,53,0.00,,---,0.00,VWS V14.01,2013-05-02 13:49:00,
2013-05-02 09:54:00,69.6,51.7,30.21,ESE,112,0.0,0.0,53,0.00,,---,0.00,VWS V14.01,2013-05-02 13:54:00,
2013-05-02 09:59:00,70.7,51.7,30.21,SW,225,0.0,0.0,51,0.00,,---,0.00,VWS V14.01,2013-05-02 13:59:00,
2013-05-02 10:04:00,71.2,52.2,30.21,SSE,158,0.0,0.0,51,0.00,,---,0.00,VWS V14.01,2013-05-02 14:04:00,
2013-05-02 10:09:00,71.4,51.8,30.21,SSW,202,0.0,0.0,50,0.00,,---,0.00,VWS V14.01,2013-05-02 14:09:00,
2013-05-02 10:14:00,71.4,51.8,30.21,SSW,202,0.0,0.0,50,0.00,,---,0.00,VWS V14.01,2013-05-02 14:14:00,
2013-05-02 10:19:00,72.3,52.1,30.21,SSW,202,0.0,0.0,49,0.00,,---,0.00,VWS V14.01,2013-05-02 14:19:00,
2013-05-02 10:24:00,72.5,52.8,30.21,ENE,68,0.0,0.0,50,0.00,,---,0.00,VWS V14.01,2013-05-02 14:24:00,
2013-05-02 10:29:00,72.5,52.8,30.20,ENE,68,0.0,0.0,50,0.00,,---,0.00,VWS V14.01,2013-05-02 14:29:00,
2013-05-02 10:34:00,73.5,53.7,30.21,ENE,68,0.0,0.0,50,0.00,,---,0.00,VWS V14.01,2013-05-02 14:34:00,
2013-05-02 10:39:00,73.9,53.0,30.20,ENE,68,0.0,0.0,48,0.00,,---,0.00,VWS V14.01,2013-05-02 14:39:00,
2013-05-02 10:44:00,74.1,53.2,30.20,SSE,158,4.2,4.2,48,0.00,,---,0.00,VWS V14.01,2013-05-02 14:44:00,
2013-05-02 10:49:00,74.6,53.6,30.20,ENE,68,0.0,0.0,48,0.00,,---,0.00,VWS V14.01,2013-05-02 14:49:00,
2013-05-02 10:54:00,74.6,53.6,30.20,ESE,112,0.0,0.0,48,0.00,,---,0.00,VWS V14.01,2013-05-02 14:54:00,
2013-05-02 10:59:00,75.2,53.0,30.20,ENE,68,0.0,0.0,46,0.00,,---,0.00,VWS V14.01,2013-05-02 14:59:00,
2013-05-02 11:04:00,75.3,53.1,30.20,ESE,112,0.0,0.0,46,0.00,,---,0.00,VWS V14.01,2013-05-02 15:04:00,
2013-05-02 11:09:00,76.1,53.8,30.20,SE,135,0.0,0.0,46,0.00,,---,0.00,VWS V14.01,2013-05-02 15:09:00,
2013-05-02 11:14:00,76.6,53.7,30.20,SSE,158,1.5,1.5,45,0.00,,---,0.00,VWS V14.01,2013-05-02 15:14:00,
2013-05-02 11:19:00,76.8,53.3,30.20,East,90,0.0,0.0,44,0.00,,---,0.00,VWS V14.01,2013-05-02 15:19:00,
2013-05-02 11:24:00,76.8,53.3,30.20,South,180,0.0,0.0,44,0.00,,---,0.00,VWS V14.01,2013-05-02 15:24:00,
2013-05-02 11:29:00,76.8,53.3,30.20,South,180,2.6,2.6,44,0.00,,---,0.00,VWS V14.01,2013-05-02 15:29:00,
2013-05-02 11:34:00,77.3,53.1,30.20,SW,225,1.7,1.7,43,0.00,,---,0.00,VWS V14.01,2013-05-02 15:34:00,
2013-05-02 11:39:00,77.5,53.3,30.20,SE,135,0.0,0.0,43,0.00,,---,0.00,VWS V14.01,2013-05-02 15:39:00,
2013-05-02 11:44:00,77.7,52.8,30.20,NE,45,0.0,2.6,42,0.00,,---,0.00,VWS V14.01,2013-05-02 15:44:00,
2013-05-02 11:49:00,78.4,53.4,30.20,NNE,22,0.0,0.0,42,0.00,,---,0.00,VWS V14.01,2013-05-02 15:49:00,
2013-05-02 11:54:00,78.6,53.6,30.20,SSW,202,0.0,0.0,42,0.00,,---,0.00,VWS V14.01,2013-05-02 15:54:00,
2013-05-02 11:59:00,78.6,52.3,30.19,SW,225,0.0,2.6,40,0.00,,---,0.00,VWS V14.01,2013-05-02 15:59:00,
2013-05-02 12:04:00,78.6,52.3,30.19,South,180,0.0,0.0,40,0.00,,---,0.00,VWS V14.01,2013-05-02 16:04:00,
2013-05-02 12:09:00,78.6,53.0,30.20,SSE,158,0.0,0.0,41,0.00,,---,0.00,VWS V14.01,2013-05-02 16:09:00,
2013-05-02 12:14:00,78.9,53.2,30.19,WSW,248,0.0,3.5,41,0.00,,---,0.00,VWS V14.01,2013-05-02 16:14:00,
2013-05-02 12:19:00,79.5,53.8,30.19,ENE,68,2.9,2.9,41,0.00,,---,0.00,VWS V14.01,2013-05-02 16:19:00,
2013-05-02 12:24:00,79.7,53.9,30.19,ENE,68,7.6,7.6,41,0.00,,---,0.00,VWS V14.01,2013-05-02 16:24:00,
2013-05-02 12:29:00,79.7,53.3,30.19,South,180,0.0,2.0,40,0.00,,---,0.00,VWS V14.01,2013-05-02 16:29:00,
2013-05-02 12:34:00,79.7,53.3,30.19,SE,135,1.5,1.5,40,0.00,,---,0.00,VWS V14.01,2013-05-02 16:34:00,
2013-05-02 12:39:00,79.8,53.4,30.19,ESE,112,0.0,0.0,40,0.00,,---,0.00,VWS V14.01,2013-05-02 16:39:00,
2013-05-02 12:44:00,79.8,52.7,30.18,SSE,158,0.0,0.0,39,0.00,,---,0.00,VWS V14.01,2013-05-02 16:44:00,
2013-05-02 12:49:00,80.0,53.5,30.18,ESE,112,0.0,0.0,40,0.00,,---,0.00,VWS V14.01,2013-05-02 16:49:00,
2013-05-02 12:54:00,80.0,53.5,30.18,East,90,0.0,0.0,40,0.00,,---,0.00,VWS V14.01,2013-05-02 16:54:00,
2013-05-02 12:59:00,80.2,53.0,30.18,SSE,158,0.0,0.0,39,0.00,,---,0.00,VWS V14.01,2013-05-02 16:59:00,
2013-05-02 13:05:00,80.2,53.0,30.18,SSE,158,0.0,0.0,39,0.00,,---,0.00,VWS V14.01,2013-05-02 17:05:00,
2013-05-02 13:10:00,80.2,53.0,30.17,SSE,158,0.0,0.0,39,0.00,,---,0.00,VWS V14.01,2013-05-02 17:10:00,
2013-05-02 13:15:00,80.2,53.0,30.18,SE,135,2.0,2.0,39,0.00,,---,0.00,VWS V14.01,2013-05-02 17:15:00,
2013-05-02 13:20:00,80.9,52.9,30.18,SSE,158,0.0,0.0,38,0.00,,---,0.00,VWS V14.01,2013-05-02 17:20:00,
2013-05-02 13:25:00,80.9,53.7,30.18,East,90,0.0,0.0,39,0.00,,---,0.00,VWS V14.01,2013-05-02 17:25:00,
2013-05-02 13:30:00,81.3,53.3,30.17,SSE,158,0.0,0.0,38,0.00,,---,0.00,VWS V14.01,2013-05-02 17:30:00,
2013-05-02 13:35:00,81.3,54.0,30.17,East,90,0.0,0.0,39,0.00,,---,0.00,VWS V14.01,2013-05-02 17:35:00,
2013-05-02 13:40:00,81.5,54.2,30.17,SE,135,0.0,0.0,39,0.00,,---,0.00,VWS V14.01,2013-05-02 17:40:00,
2013-05-02 13:45:00,81.6,53.6,30.17,SSW,202,7.8,7.8,38,0.00,,---,0.00,VWS V14.01,2013-05-02 17:45:00,
2013-05-02 13:50:00,81.6,54.3,30.16,SE,135,0.0,0.0,39,0.00,,---,0.00,VWS V14.01,2013-05-02 17:50:00,
2013-05-02 13:55:00,81.5,54.2,30.17,South,180,7.3,7.3,39,0.00,,---,0.00,VWS V14.01,2013-05-02 17:55:00,
2013-05-02 14:00:00,81.5,54.2,30.16,South,180,1.1,1.1,39,0.00,,---,0.00,VWS V14.01,2013-05-02 18:00:00,
2013-05-02 14:05:00,81.5,54.2,30.16,ENE,68,2.0,2.0,39,0.00,,---,0.00,VWS V14.01,2013-05-02 18:05:00,
2013-05-02 14:10:00,81.6,55.0,30.16,East,90,0.0,2.9,40,0.00,,---,0.00,VWS V14.01,2013-05-02 18:10:00,
2013-05-02 14:15:00,81.6,55.0,30.16,SSE,158,6.9,6.9,40,0.00,,---,0.00,VWS V14.01,2013-05-02 18:15:00,
2013-05-02 14:20:00,82.0,55.3,30.16,East,90,0.6,0.6,40,0.00,,---,0.00,VWS V14.01,2013-05-02 18:20:00,
2013-05-02 14:25:00,82.0,55.3,30.16,South,180,7.6,10.2,40,0.00,,---,0.00,VWS V14.01,2013-05-02 18:25:00,
2013-05-02 14:30:00,82.0,54.6,30.15,SSE,158,6.9,6.9,39,0.00,,---,0.00,VWS V14.01,2013-05-02 18:30:00,
2013-05-02 14:35:00,82.0,55.3,30.15,South,180,0.6,0.6,40,0.00,,---,0.00,VWS V14.01,2013-05-02 18:35:00,
2013-05-02 14:40:00,82.2,55.5,30.15,South,180,1.1,4.4,40,0.00,,---,0.00,VWS V14.01,2013-05-02 18:40:00,
2013-05-02 14:45:00,82.2,55.5,30.15,South,180,6.2,6.2,40,0.00,,---,0.00,VWS V14.01,2013-05-02 18:45:00,
2013-05-02 14:50:00,82.5,55.8,30.15,South,180,0.0,0.0,40,0.00,,---,0.00,VWS V14.01,2013-05-02 18:50:00,
2013-05-02 14:55:00,82.9,56.1,30.15,SW,225,3.8,8.2,40,0.00,,---,0.00,VWS V14.01,2013-05-02 18:55:00,
2013-05-02 15:00:00,82.9,55.4,30.14,SW,225,2.4,2.4,39,0.00,,---,0.00,VWS V14.01,2013-05-02 19:00:00,
2013-05-02 15:05:00,82.9,56.1,30.15,ENE,68,3.3,3.3,40,0.00,,---,0.00,VWS V14.01,2013-05-02 19:05:00,
2013-05-02 15:10:00,83.1,55.6,30.14,SSW,202,0.0,2.0,39,0.00,,---,0.00,VWS V14.01,2013-05-02 19:10:00,
2013-05-02 15:15:00,83.1,55.6,30.14,SSE,158,14.5,14.5,39,0.00,,---,0.00,VWS V14.01,2013-05-02 19:15:00,
2013-05-02 15:20:00,83.1,55.6,30.14,SSE,158,7.6,7.6,39,0.00,,---,0.00,VWS V14.01,2013-05-02 19:20:00,
2013-05-02 15:25:00,83.1,55.6,30.14,East,90,4.4,4.4,39,0.00,,---,0.00,VWS V14.01,2013-05-02 19:25:00,
2013-05-02 15:30:00,82.9,55.4,30.13,SE,135,0.0,0.0,39,0.00,,---,0.00,VWS V14.01,2013-05-02 19:30:00,
2013-05-02 15:35:00,82.9,56.1,30.13,SSE,158,0.0,0.0,40,0.00,,---,0.00,VWS V14.01,2013-05-02 19:35:00,
2013-05-02 15:40:00,83.3,55.8,30.13,SSW,202,4.4,9.1,39,0.00,,---,0.00,VWS V14.01,2013-05-02 19:40:00,
2013-05-02 15:45:00,83.3,55.8,30.13,NNW,338,0.0,0.0,39,0.00,,---,0.00,VWS V14.01,2013-05-02 19:45:00,
2013-05-02 15:50:00,83.3,55.8,30.12,SSW,202,5.1,5.1,39,0.00,,---,0.00,VWS V14.01,2013-05-02 19:50:00,
2013-05-02 15:55:00,83.3,55.8,30.12,SSW,202,0.2,3.8,39,0.00,,---,0.00,VWS V14.01,2013-05-02 19:55:00,
2013-05-02 16:00:00,83.3,56.5,30.12,ESE,112,2.9,2.9,40,0.00,,---,0.00,VWS V14.01,2013-05-02 20:00:00,
2013-05-02 16:05:00,83.4,55.9,30.12,SSE,158,4.0,4.0,39,0.00,,---,0.00,VWS V14.01,2013-05-02 20:05:00,
2013-05-02 16:10:00,83.4,55.9,30.12,SSW,202,9.8,10.7,39,0.00,,---,0.00,VWS V14.01,2013-05-02 20:10:00,
2013-05-02 16:15:00,83.3,55.8,30.12,South,180,1.3,1.3,39,0.00,,---,0.00,VWS V14.01,2013-05-02 20:15:00,
2013-05-02 16:20:00,83.3,55.8,30.12,ENE,68,0.8,0.8,39,0.00,,---,0.00,VWS V14.01,2013-05-02 20:20:00,
2013-05-02 16:25:00,83.4,55.9,30.12,South,180,1.1,1.1,39,0.00,,---,0.00,VWS V14.01,2013-05-02 20:25:00,
2013-05-02 16:30:00,83.3,55.8,30.11,SW,225,10.2,10.2,39,0.00,,---,0.00,VWS V14.01,2013-05-02 20:30:00,
2013-05-02 16:35:00,83.3,55.8,30.11,South,180,0.0,0.0,39,0.00,,---,0.00,VWS V14.01,2013-05-02 20:35:00,
2013-05-02 16:40:00,83.8,56.9,30.11,South,180,1.5,1.5,40,0.00,,---,0.00,VWS V14.01,2013-05-02 20:40:00,
2013-05-02 16:45:00,84.0,56.4,30.11,SSW,202,9.1,9.1,39,0.00,,---,0.00,VWS V14.01,2013-05-02 20:45:00,
2013-05-02 16:50:00,84.0,55.7,30.11,SSW,202,8.9,8.9,38,0.00,,---,0.00,VWS V14.01,2013-05-02 20:50:00,
2013-05-02 16:55:00,82.9,55.4,30.10,SSE,158,0.0,6.4,39,0.00,,---,0.00,VWS V14.01,2013-05-02 20:55:00,
2013-05-02 17:00:00,82.5,55.8,30.10,South,180,5.1,5.1,40,0.00,,---,0.00,VWS V14.01,2013-05-02 21:00:00,
2013-05-02 17:05:00,82.5,55.8,30.10,SSE,158,0.0,0.0,40,0.00,,---,0.00,VWS V14.01,2013-05-02 21:05:00,
2013-05-02 17:10:00,82.5,56.5,30.10,SE,135,1.5,2.0,41,0.00,,---,0.00,VWS V14.01,2013-05-02 21:10:00,
2013-05-02 17:15:00,82.7,55.2,30.10,SSE,158,4.2,4.2,39,0.00,,---,0.00,VWS V14.01,2013-05-02 21:15:00,
2013-05-02 17:20:00,83.1,55.6,30.10,SW,225,0.0,0.0,39,0.00,,---,0.00,VWS V14.01,2013-05-02 21:20:00,
2013-05-02 17:25:00,84.3,56.7,30.10,South,180,10.0,10.0,39,0.00,,---,0.00,VWS V14.01,2013-05-02 21:25:00,
2013-05-02 17:30:00,84.7,57.0,30.10,WSW,248,3.1,3.1,39,0.00,,---,0.00,VWS V14.01,2013-05-02 21:30:00,
2013-05-02 17:35:00,84.5,56.8,30.10,SSW,202,2.4,2.4,39,0.00,,---,0.00,VWS V14.01,2013-05-02 21:35:00,
2013-05-02 17:40:00,84.0,56.4,30.10,East,90,1.5,1.7,39,0.00,,---,0.00,VWS V14.01,2013-05-02 21:40:00,
2013-05-02 17:45:00,84.0,57.1,30.10,South,180,8.0,8.0,40,0.00,,---,0.00,VWS V14.01,2013-05-02 21:45:00,
2013-05-02 17:50:00,84.3,56.7,30.10,SSW,202,7.1,7.1,39,0.00,,---,0.00,VWS V14.01,2013-05-02 21:50:00,
2013-05-02 17:55:00,84.3,56.0,30.09,WSW,248,8.2,8.2,38,0.00,,---,0.00,VWS V14.01,2013-05-02 21:55:00,
2013-05-02 18:00:00,84.7,57.0,30.09,WSW,248,0.0,0.0,39,0.00,,---,0.00,VWS V14.01,2013-05-02 22:00:00,
2013-05-02 18:05:00,84.9,56.5,30.09,South,180,0.0,0.0,38,0.00,,---,0.00,VWS V14.01,2013-05-02 22:05:00,
2013-05-02 18:10:00,85.6,57.1,30.09,ENE,68,0.0,4.6,38,0.00,,---,0.00,VWS V14.01,2013-05-02 22:10:00,
2013-05-02 18:15:00,85.6,56.4,30.09,SSW,202,0.0,0.0,37,0.00,,---,0.00,VWS V14.01,2013-05-02 22:15:00,
2013-05-02 18:20:00,85.4,56.9,30.09,South,180,0.0,0.0,38,0.00,,---,0.00,VWS V14.01,2013-05-02 22:20:00,
2013-05-02 18:25:00,85.8,57.3,30.09,WSW,248,8.0,8.0,38,0.00,,---,0.00,VWS V14.01,2013-05-02 22:25:00,
2013-05-02 18:30:00,85.6,56.4,30.09,WSW,248,5.8,5.8,37,0.00,,---,0.00,VWS V14.01,2013-05-02 22:30:00,
2013-05-02 18:35:00,84.9,55.8,30.09,WSW,248,0.0,0.0,37,0.00,,---,0.00,VWS V14.01,2013-05-02 22:35:00,
2013-05-02 18:40:00,84.5,56.1,30.09,WSW,248,0.0,0.0,38,0.00,,---,0.00,VWS V14.01,2013-05-02 22:40:00,
2013-05-02 18:45:00,84.3,56.0,30.08,WSW,248,7.1,7.1,38,0.00,,---,0.00,VWS V14.01,2013-05-02 22:45:00,
2013-05-02 18:50:00,84.3,56.0,30.08,WSW,248,0.0,0.0,38,0.00,,---,0.00,VWS V14.01,2013-05-02 22:50:00,
2013-05-02 18:55:00,84.7,55.6,30.09,WSW,248,0.8,5.8,37,0.00,,---,0.00,VWS V14.01,2013-05-02 22:55:00,
2013-05-02 19:00:00,84.5,55.4,30.08,WSW,248,7.3,7.3,37,0.00,,---,0.00,VWS V14.01,2013-05-02 23:00:00,
2013-05-02 19:05:00,84.3,55.2,30.08,WSW,248,4.4,4.4,37,0.00,,---,0.00,VWS V14.01,2013-05-02 23:05:00,
2013-05-02 19:10:00,83.8,55.5,30.08,SSW,202,8.9,8.9,38,0.00,,---,0.00,VWS V14.01,2013-05-02 23:10:00,
2013-05-02 19:15:00,83.4,55.2,30.08,SSE,158,2.0,2.0,38,0.00,,---,0.00,VWS V14.01,2013-05-02 23:15:00,
2013-05-02 19:20:00,83.1,54.9,30.08,ESE,112,0.0,0.0,38,0.00,,---,0.00,VWS V14.01,2013-05-02 23:20:00,
2013-05-02 19:25:00,82.0,53.9,30.08,SSW,202,8.5,8.5,38,0.00,,---,0.00,VWS V14.01,2013-05-02 23:25:00,
2013-05-02 19:30:00,81.6,53.6,30.08,South,180,4.0,4.0,38,0.00,,---,0.00,VWS V14.01,2013-05-02 23:30:00,
2013-05-02 19:35:00,80.6,52.7,30.08,SSE,158,8.0,8.0,38,0.00,,---,0.00,VWS V14.01,2013-05-02 23:35:00,
2013-05-02 19:40:00,79.7,52.6,30.08,SSW,202,2.2,8.2,39,0.00,,---,0.00,VWS V14.01,2013-05-02 23:40:00,
2013-05-02 19:45:00,79.3,52.2,30.08,South,180,0.0,0.0,39,0.00,,---,0.00,VWS V14.01,2013-05-02 23:45:00,
2013-05-02 19:50:00,78.6,52.3,30.08,SSE,158,7.3,7.3,40,0.00,,---,0.00,VWS V14.01,2013-05-02 23:50:00,
2013-05-02 19:55:00,78.2,51.9,30.08,SSE,158,8.7,8.7,40,0.00,,---,0.00,VWS V14.01,2013-05-02 23:55:00,
2013-05-02 20:00:00,77.9,52.3,30.09,SSE,158,0.0,0.0,41,0.00,,---,0.00,VWS V14.01,2013-05-03 00:00:00,
2013-05-02 20:05:00,77.5,52.0,30.09,SE,135,0.0,0.0,41,0.00,,---,0.00,VWS V14.01,2013-05-03 00:05:00,
2013-05-02 20:10:00,76.8,52.0,30.08,ESE,112,0.0,4.4,42,0.00,,---,0.00,VWS V14.01,2013-05-03 00:10:00,
2013-05-02 20:15:00,76.8,52.0,30.09,ESE,112,0.0,0.0,42,0.00,,---,0.00,VWS V14.01,2013-05-03 00:15:00,
2013-05-02 20:20:00,76.1,52.0,30.09,South,180,0.0,0.0,43,0.00,,---,0.00,VWS V14.01,2013-05-03 00:20:00,
2013-05-02 20:25:00,75.3,51.3,30.09,SE,135,2.0,3.3,43,0.00,,---,0.00,VWS V14.01,2013-05-03 00:25:00,
2013-05-02 20:30:00,75.0,51.0,30.10,SSE,158,7.1,7.1,43,0.00,,---,0.00,VWS V14.01,2013-05-03 00:30:00,
2013-05-02 20:35:00,74.8,51.5,30.10,East,90,0.0,1.5,44,0.00,,---,0.00,VWS V14.01,2013-05-03 00:35:00,
2013-05-02 20:40:00,74.3,51.0,30.10,SSE,158,0.0,0.0,44,0.00,,---,0.00,VWS V14.01,2013-05-03 00:40:00,
2013-05-02 20:45:00,73.9,50.6,30.10,SSE,158,0.0,0.0,44,0.00,,---,0.00,VWS V14.01,2013-05-03 00:45:00,
2013-05-02 20:50:00,73.4,50.2,30.10,South,180,6.4,6.4,44,0.00,,---,0.00,VWS V14.01,2013-05-03 00:50:00,
2013-05-02 20:55:00,73.2,50.0,30.10,SSE,158,0.0,0.0,44,0.00,,---,0.00,VWS V14.01,2013-05-03 00:55:00,
2013-05-02 21:00:00,72.6,49.5,30.10,East,90,2.0,2.0,44,0.00,,---,0.00,VWS V14.01,2013-05-03 01:00:00,
2013-05-02 21:05:00,72.3,49.2,30.10,South,180,6.9,6.9,44,0.00,,---,0.00,VWS V14.01,2013-05-03 01:05:00,
2013-05-02 21:10:00,72.1,49.0,30.10,South,180,0.0,1.7,44,0.00,,---,0.00,VWS V14.01,2013-05-03 01:10:00,
2013-05-02 21:15:00,71.9,48.8,30.10,SSE,158,0.0,0.0,44,0.00,,---,0.00,VWS V14.01,2013-05-03 01:15:00,
2013-05-02 21:20:00,71.6,49.2,30.10,SSE,158,0.0,0.0,45,0.00,,---,0.00,VWS V14.01,2013-05-03 01:20:00,
2013-05-02 21:25:00,71.4,49.0,30.11,SSE,158,5.5,5.5,45,0.00,,---,0.00,VWS V14.01,2013-05-03 01:25:00,
2013-05-02 21:30:00,71.2,48.8,30.10,South,180,8.7,8.7,45,0.00,,---,0.00,VWS V14.01,2013-05-03 01:30:00,
2013-05-02 21:35:00,70.8,48.4,30.11,SSE,158,0.0,0.0,45,0.00,,---,0.00,VWS V14.01,2013-05-03 01:35:00,
2013-05-02 21:40:00,70.7,48.3,30.11,South,180,0.0,0.0,45,0.00,,---,0.00,VWS V14.01,2013-05-03 01:40:00,
2013-05-02 21:45:00,70.5,48.8,30.11,ESE,112,0.0,0.0,46,0.00,,---,0.00,VWS V14.01,2013-05-03 01:45:00,
2013-05-02 21:50:00,70.3,48.6,30.10,SSW,202,0.0,3.8,46,0.00,,---,0.00,VWS V14.01,2013-05-03 01:50:00,
2013-05-02 21:55:00,69.9,48.2,30.11,NNE,22,4.4,4.4,46,0.00,,---,0.00,VWS V14.01,2013-05-03 01:55:00,
2013-05-02 22:00:00,69.8,48.7,30.11,SSE,158,0.0,0.0,47,0.00,,---,0.00,VWS V14.01,2013-05-03 02:00:00,
2013-05-02 22:05:00,69.6,48.5,30.11,SSE,158,0.6,0.6,47,0.00,,---,0.00,VWS V14.01,2013-05-03 02:05:00,
2013-05-02 22:10:00,69.4,48.3,30.12,East,90,1.5,6.9,47,0.00,,---,0.00,VWS V14.01,2013-05-03 02:10:00,
2013-05-02 22:15:00,69.4,48.3,30.12,SSE,158,0.0,0.0,47,0.00,,---,0.00,VWS V14.01,2013-05-03 02:15:00,
2013-05-02 22:20:00,69.0,48.5,30.12,South,180,0.0,0.0,48,0.00,,---,0.00,VWS V14.01,2013-05-03 02:20:00,
2013-05-02 22:25:00,68.9,48.4,30.12,SSE,158,0.0,4.6,48,0.00,,---,0.00,VWS V14.01,2013-05-03 02:25:00,
2013-05-02 22:30:00,68.7,48.2,30.12,SW,225,0.0,0.0,48,0.00,,---,0.00,VWS V14.01,2013-05-03 02:30:00,
2013-05-02 22:35:00,68.5,48.1,30.12,SSE,158,0.0,0.0,48,0.00,,---,0.00,VWS V14.01,2013-05-03 02:35:00,
2013-05-02 22:40:00,68.3,47.9,30.11,SSE,158,0.0,0.0,48,0.00,,---,0.00,VWS V14.01,2013-05-03 02:40:00,
2013-05-02 22:45:00,68.1,48.2,30.12,SSE,158,2.0,2.0,49,0.00,,---,0.00,VWS V14.01,2013-05-03 02:45:00,
2013-05-02 22:50:00,68.1,48.2,30.12,SSE,158,2.0,2.0,49,0.00,,---,0.00,VWS V14.01,2013-05-03 02:50:00,
2013-05-02 22:55:00,67.8,48.0,30.12,SSW,202,1.5,1.5,49,0.00,,---,0.00,VWS V14.01,2013-05-03 02:55:00,
2013-05-02 23:00:00,67.8,48.0,30.11,SE,135,0.0,0.0,49,0.00,,---,0.00,VWS V14.01,2013-05-03 03:00:00,
2013-05-02 23:05:00,67.6,47.8,30.12,SSE,158,0.0,0.0,49,0.00,,---,0.00,VWS V14.01,2013-05-03 03:05:00,
2013-05-02 23:10:00,67.4,47.6,30.11,SSE,158,5.1,5.1,49,0.00,,---,0.00,VWS V14.01,2013-05-03 03:10:00,
2013-05-02 23:15:00,67.2,47.4,30.11,SSE,158,0.0,0.0,49,0.00,,---,0.00,VWS V14.01,2013-05-03 03:15:00,
2013-05-02 23:20:00,67.1,47.9,30.11,SSE,158,0.0,0.0,50,0.00,,---,0.00,VWS V14.01,2013-05-03 03:20:00,
2013-05-02 23:25:00,67.1,47.9,30.11,SSE,158,0.0,0.0,50,0.00,,---,0.00,VWS V14.01,2013-05-03 03:25:00,
2013-05-02 23:30:00,66.9,47.7,30.11,SE,135,0.0,0.0,50,0.00,,---,0.00,VWS V14.01,2013-05-03 03:30:00,
2013-05-02 23:35:00,66.7,47.5,30.11,SSE,158,2.4,2.4,50,0.00,,---,0.00,VWS V14.01,2013-05-03 03:35:00,
2013-05-02 23:40:00,66.7,47.5,30.11,South,180,0.0,0.0,50,0.00,,---,0.00,VWS V14.01,2013-05-03 03:40:00,
2013-05-02 23:45:00,66.7,47.5,30.12,SSE,158,0.0,0.0,50,0.00,,---,0.00,VWS V14.01,2013-05-03 03:45:00,
2013-05-02 23:50:00,66.3,47.7,30.12,SSE,158,0.0,0.0,51,0.00,,---,0.00,VWS V14.01,2013-05-03 03:50:00,
2013-05-02 23:55:00,66.3,47.7,30.11,SSE,158,0.0,0.0,51,0.00,,---,0.00,VWS V14.01,2013-05-03 03:55:00,